TimeCST,TemperatureF,Dew PointF,Humidity,Sea Level PressureIn,VisibilityMPH,Wind Direction,Wind SpeedMPH,Gust SpeedMPH,PrecipitationIn,Events,Conditions,WindDirDegrees,DateUTC
12:15 AM,23.9,21.2,89,29.84,1.2,Calm,Calm,-,N/A,,Overcast,0,2012-11-25 06:15:00
12:35 AM,23.9,21.7,91,29.82,1.5,SSE,3.5,-,N/A,,Overcast,160,2012-11-25 06:35:00
12:55 AM,23.9,21.9,92,29.81,5.0,South,3.5,-,N/A,,Overcast,170,2012-11-25 06:55:00
1:15 AM,23.9,22.1,93,29.81,1.8,South,4.6,-,N/A,,Overcast,190,2012-11-25 07:15:00
1:35 AM,23.9,22.1,93,29.81,5.0,South,4.6,-,N/A,,Overcast,190,2012-11-25 07:35:00
1:55 AM,23.9,22.1,93,29.81,10.0,SSW,4.6,-,N/A,,Overcast,200,2012-11-25 07:55:00
2:15 AM,23.9,22.1,93,29.80,10.0,SSW,4.6,-,N/A,,Overcast,200,2012-11-25 08:15:00
2:35 AM,24.3,22.1,91,29.80,10.0,SSW,4.6,-,N/A,,Overcast,210,2012-11-25 08:35:00
2:55 AM,24.4,21.7,89,29.79,10.0,SSW,4.6,-,N/A,,Overcast,210,2012-11-25 08:55:00
3:15 AM,24.6,21.7,89,29.78,10.0,SW,3.5,-,N/A,,Overcast,220,2012-11-25 09:15:00
3:35 AM,24.8,21.4,87,29.78,10.0,WSW,4.6,-,N/A,,Overcast,240,2012-11-25 09:35:00
3:55 AM,25.3,20.8,83,29.78,10.0,WSW,4.6,-,N/A,,Overcast,240,2012-11-25 09:55:00
4:15 AM,25.5,20.1,80,29.78,10.0,WSW,5.8,-,N/A,,Overcast,240,2012-11-25 10:15:00
4:35 AM,25.7,19.4,77,29.78,10.0,WSW,5.8,-,N/A,,Overcast,240,2012-11-25 10:35:00
4:55 AM,25.7,19.4,77,29.79,10.0,WSW,4.6,-,N/A,,Overcast,240,2012-11-25 10:55:00
5:35 AM,25.7,19.2,76,29.79,10.0,WSW,6.9,-,N/A,,Overcast,250,2012-11-25 11:35:00
5:55 AM,25.7,19.4,77,29.79,10.0,WSW,6.9,-,N/A,,Overcast,250,2012-11-25 11:55:00
6:15 AM,25.7,19.2,76,29.79,10.0,WSW,5.8,-,N/A,,Overcast,250,2012-11-25 12:15:00
6:35 AM,25.9,19.4,76,29.79,10.0,WSW,5.8,-,N/A,,Overcast,250,2012-11-25 12:35:00
6:55 AM,26.1,19.2,75,29.80,10.0,West,6.9,-,N/A,,Overcast,270,2012-11-25 12:55:00
7:15 AM,26.2,19.6,76,29.80,10.0,West,6.9,-,N/A,,Overcast,280,2012-11-25 13:15:00
7:35 AM,26.4,19.4,75,29.81,10.0,West,3.5,-,N/A,,Overcast,280,2012-11-25 13:35:00
7:55 AM,26.4,19.2,74,29.81,10.0,WNW,4.6,-,N/A,,Overcast,290,2012-11-25 13:55:00
8:15 AM,26.6,19.2,74,29.82,10.0,West,5.8,-,N/A,,Overcast,270,2012-11-25 14:15:00
8:35 AM,27.0,19.2,73,29.83,10.0,West,4.6,-,N/A,,Overcast,280,2012-11-25 14:35:00
8:55 AM,27.3,19.2,72,29.83,10.0,WNW,4.6,-,N/A,,Overcast,290,2012-11-25 14:55:00
9:15 AM,27.3,19.2,72,29.84,10.0,WNW,5.8,-,N/A,,Overcast,300,2012-11-25 15:15:00
9:35 AM,27.5,19.4,72,29.84,10.0,West,8.1,-,N/A,,Overcast,280,2012-11-25 15:35:00
9:55 AM,27.5,19.6,72,29.85,10.0,WNW,6.9,-,N/A,,Overcast,290,2012-11-25 15:55:00
10:15 AM,27.5,19.0,71,29.86,10.0,WNW,9.2,18.4,N/A,,Overcast,290,2012-11-25 16:15:00
10:35 AM,27.9,19.0,69,29.85,10.0,NW,10.4,-,N/A,,Overcast,320,2012-11-25 16:35:00
10:55 AM,27.9,18.9,69,29.86,10.0,NW,9.2,16.1,N/A,,Overcast,310,2012-11-25 16:55:00
11:15 AM,28.4,18.9,67,29.86,10.0,WNW,9.2,-,N/A,,Overcast,300,2012-11-25 17:15:00
11:35 AM,29.1,19.0,66,29.86,10.0,WNW,10.4,16.1,N/A,,Mostly Cloudy,300,2012-11-25 17:35:00
11:55 AM,30.2,20.3,67,29.86,10.0,West,11.5,17.3,N/A,,Scattered Clouds,270,2012-11-25 17:55:00
12:15 PM,30.2,19.9,66,29.86,10.0,West,11.5,18.4,N/A,,Scattered Clouds,270,2012-11-25 18:15:00
12:35 PM,29.7,19.2,65,29.86,10.0,NW,11.5,19.6,N/A,,Scattered Clouds,310,2012-11-25 18:35:00
12:55 PM,31.1,19.6,62,29.86,10.0,NW,13.8,19.6,N/A,,Scattered Clouds,310,2012-11-25 18:55:00
1:15 PM,31.5,20.1,63,29.86,10.0,WNW,12.7,18.4,N/A,,Mostly Cloudy,290,2012-11-25 19:15:00
1:35 PM,30.7,19.4,63,29.86,10.0,NW,12.7,17.3,N/A,,Mostly Cloudy,310,2012-11-25 19:35:00
1:55 PM,30.2,19.2,64,29.87,10.0,NW,10.4,21.9,N/A,,Mostly Cloudy,310,2012-11-25 19:55:00
2:15 PM,29.3,18.9,65,29.88,10.0,WNW,10.4,18.4,N/A,,Overcast,300,2012-11-25 20:15:00
2:35 PM,28.9,18.7,66,29.88,10.0,WNW,11.5,-,N/A,,Overcast,290,2012-11-25 20:35:00
2:55 PM,28.9,18.5,65,29.89,10.0,NW,9.2,19.6,N/A,,Overcast,310,2012-11-25 20:55:00
3:15 PM,28.0,18.5,67,29.90,10.0,NW,9.2,-,N/A,,Overcast,310,2012-11-25 21:15:00
3:35 PM,28.0,18.5,67,29.91,10.0,NW,10.4,-,N/A,,Overcast,320,2012-11-25 21:35:00
3:55 PM,27.5,18.3,68,29.91,10.0,NW,10.4,-,N/A,,Overcast,320,2012-11-25 21:55:00
4:15 PM,27.5,18.3,68,29.92,10.0,WNW,4.6,-,N/A,,Overcast,300,2012-11-25 22:15:00
4:35 PM,27.9,18.7,68,29.92,10.0,WNW,5.8,-,N/A,,Overcast,290,2012-11-25 22:35:00
4:55 PM,27.9,18.9,69,29.92,10.0,West,3.5,-,N/A,,Overcast,280,2012-11-25 22:55:00
5:15 PM,28.4,19.2,69,29.93,10.0,WNW,6.9,-,N/A,,Overcast,290,2012-11-25 23:15:00
5:35 PM,28.4,19.4,69,29.93,10.0,West,6.9,-,N/A,,Overcast,280,2012-11-25 23:35:00
5:55 PM,28.4,19.2,69,29.94,10.0,WNW,5.8,19.6,N/A,,Overcast,290,2012-11-25 23:55:00
6:15 PM,28.4,19.4,69,29.95,10.0,WNW,9.2,-,N/A,,Overcast,290,2012-11-26 00:15:00
6:55 PM,26.6,18.1,70,29.96,10.0,WNW,13.8,19.6,N/A,,Overcast,300,2012-11-26 00:55:00
7:15 PM,25.7,12.9,58,29.98,10.0,WNW,13.8,19.6,N/A,,Overcast,300,2012-11-26 01:15:00
7:35 PM,25.2,11.7,57,29.98,10.0,NNW,10.4,20.7,N/A,,Overcast,330,2012-11-26 01:35:00
7:55 PM,24.4,9.5,53,29.99,10.0,NNW,10.4,17.3,N/A,,Scattered Clouds,330,2012-11-26 01:55:00
8:15 PM,24.4,10.2,55,30.00,10.0,NNW,6.9,-,N/A,,Overcast,330,2012-11-26 02:15:00
8:35 PM,23.7,10.6,57,30.00,10.0,Calm,Calm,-,N/A,,Mostly Cloudy,0,2012-11-26 02:35:00
8:55 PM,23.7,12.2,61,30.00,10.0,West,3.5,-,N/A,,Overcast,270,2012-11-26 02:55:00
9:15 PM,23.7,14.5,68,30.01,10.0,West,4.6,-,N/A,,Overcast,270,2012-11-26 03:15:00
9:35 PM,23.5,14.4,68,30.02,10.0,West,4.6,-,N/A,,Overcast,270,2012-11-26 03:35:00
9:55 PM,23.5,14.4,68,30.03,10.0,West,3.5,-,N/A,,Overcast,280,2012-11-26 03:55:00
10:15 PM,23.7,15.3,70,30.03,10.0,West,5.8,-,N/A,,Overcast,260,2012-11-26 04:15:00
10:35 PM,23.9,15.8,71,30.04,10.0,West,5.8,-,N/A,,Overcast,280,2012-11-26 04:35:00
10:55 PM,23.9,16.7,74,30.05,10.0,WSW,6.9,-,N/A,,Overcast,240,2012-11-26 04:55:00
11:15 PM,23.9,17.1,75,30.06,10.0,WSW,3.5,-,N/A,,Overcast,250,2012-11-26 05:15:00
11:35 PM,23.7,16.7,75,30.05,10.0,WSW,3.5,-,N/A,,Overcast,250,2012-11-26 05:35:00
11:55 PM,23.7,16.9,75,30.06,10.0,West,4.6,-,N/A,,Overcast,260,2012-11-26 05:55:00